TimeEDT,TemperatureF,Dew PointF,Humidity,Sea Level PressureIn,VisibilityMPH,Wind Direction,Wind SpeedMPH,Gust SpeedMPH,PrecipitationIn,Events,Conditions,WindDirDegrees,DateUTC
12:15 AM,44.6,19.4,37,29.95,10.0,NNW,8.1,19.6,N/A,,Clear,330,2013-04-02 04:15:00
12:35 AM,42.8,19.4,39,29.96,10.0,NW,9.2,19.6,N/A,,Clear,320,2013-04-02 04:35:00
12:55 AM,42.8,19.4,39,29.97,10.0,NW,12.7,19.6,N/A,,Clear,320,2013-04-02 04:55:00
1:15 AM,42.8,17.6,36,29.97,10.0,NNW,10.4,19.6,N/A,,Clear,330,2013-04-02 05:15:00
1:35 AM,42.8,15.8,34,29.98,10.0,NNW,10.4,19.6,N/A,,Clear,340,2013-04-02 05:35:00
1:55 AM,42.8,15.8,34,29.99,10.0,NNW,9.2,17.3,N/A,,Clear,330,2013-04-02 05:55:00
2:15 AM,41.0,15.8,36,29.99,10.0,NNW,6.9,18.4,N/A,,Clear,330,2013-04-02 06:15:00
2:35 AM,41.0,15.8,36,29.99,10.0,NNW,9.2,16.1,N/A,,Clear,330,2013-04-02 06:35:00
2:55 AM,39.2,15.8,39,29.99,10.0,NNW,8.1,-,N/A,,Clear,340,2013-04-02 06:55:00
3:15 AM,39.2,15.8,39,29.99,10.0,NNW,5.8,-,N/A,,Clear,340,2013-04-02 07:15:00
3:35 AM,39.2,15.8,39,29.99,10.0,NNW,6.9,-,N/A,,Clear,340,2013-04-02 07:35:00
3:55 AM,39.2,15.8,39,30.00,10.0,NNW,5.8,-,N/A,,Clear,330,2013-04-02 07:55:00
4:15 AM,39.2,15.8,39,30.00,10.0,NNW,3.5,-,N/A,,Clear,330,2013-04-02 08:15:00
4:35 AM,37.4,15.8,41,30.00,10.0,NNW,5.8,-,N/A,,Clear,340,2013-04-02 08:35:00
4:55 AM,37.4,15.8,41,30.01,10.0,North,5.8,-,N/A,,Clear,350,2013-04-02 08:55:00
5:15 AM,37.4,12.2,36,30.02,10.0,NNW,5.8,-,N/A,,Clear,340,2013-04-02 09:15:00
5:35 AM,37.4,12.2,36,30.02,10.0,NNW,4.6,-,N/A,,Clear,340,2013-04-02 09:35:00
5:55 AM,37.4,12.2,36,30.03,10.0,NNW,5.8,-,N/A,,Clear,330,2013-04-02 09:55:00
6:15 AM,37.4,14.0,38,30.04,10.0,NNW,5.8,-,N/A,,Clear,340,2013-04-02 10:15:00
6:35 AM,37.4,14.0,38,30.05,-9999.0,NW,3.5,-,N/A,,Clear,320,2013-04-02 10:35:00
6:55 AM,37.4,14.0,38,30.06,-9999.0,NW,5.8,-,N/A,,Clear,310,2013-04-02 10:55:00
7:15 AM,37.4,14.0,38,30.06,-9999.0,Calm,Calm,-,N/A,,Clear,0,2013-04-02 11:15:00
7:35 AM,37.4,15.8,41,30.07,-9999.0,NW,4.6,-,N/A,,Clear,320,2013-04-02 11:35:00
7:55 AM,39.2,15.8,39,30.08,10.0,NW,5.8,-,N/A,,Clear,310,2013-04-02 11:55:00
8:15 AM,39.2,17.6,42,30.08,10.0,WNW,5.8,-,N/A,,Clear,300,2013-04-02 12:15:00
8:35 AM,41.0,19.4,42,30.09,10.0,WNW,6.9,-,N/A,,Clear,290,2013-04-02 12:35:00
8:55 AM,41.0,17.6,39,30.10,10.0,West,10.4,-,N/A,,Clear,280,2013-04-02 12:55:00
9:15 AM,41.0,17.6,39,30.10,10.0,WNW,9.2,-,N/A,,Clear,290,2013-04-02 13:15:00
9:35 AM,41.0,17.6,39,30.10,10.0,West,10.4,-,N/A,,Clear,280,2013-04-02 13:35:00
9:55 AM,41.0,17.6,39,30.10,10.0,WNW,11.5,20.7,N/A,,Clear,290,2013-04-02 13:55:00
10:35 AM,42.8,17.6,36,30.10,10.0,WNW,15.0,23.0,N/A,,Clear,290,2013-04-02 14:35:00
10:55 AM,42.8,17.6,36,30.10,10.0,West,13.8,20.7,N/A,,Clear,280,2013-04-02 14:55:00
11:15 AM,42.8,19.4,39,30.09,10.0,NNW,8.1,17.3,N/A,,Clear,330,2013-04-02 15:15:00
11:35 AM,42.8,19.4,39,30.09,10.0,WNW,11.5,17.3,N/A,,Clear,290,2013-04-02 15:35:00
11:55 AM,42.8,19.4,39,30.09,10.0,WNW,8.1,17.3,N/A,,Clear,290,2013-04-02 15:55:00
12:15 PM,44.6,21.2,39,30.08,10.0,WNW,12.7,17.3,N/A,,Clear,290,2013-04-02 16:15:00
12:35 PM,44.6,19.4,37,30.08,10.0,West,13.8,23.0,N/A,,Clear,280,2013-04-02 16:35:00
12:55 PM,44.6,19.4,37,30.07,10.0,West,15.0,23.0,N/A,,Clear,280,2013-04-02 16:55:00
1:15 PM,44.6,19.4,37,30.07,10.0,West,15.0,21.9,N/A,,Clear,280,2013-04-02 17:15:00
1:35 PM,44.6,19.4,37,30.06,10.0,WNW,15.0,23.0,N/A,,Clear,300,2013-04-02 17:35:00
1:55 PM,44.6,19.4,37,30.06,10.0,West,16.1,23.0,N/A,,Clear,280,2013-04-02 17:55:00
2:15 PM,46.4,17.6,32,30.06,10.0,WNW,15.0,21.9,N/A,,Clear,290,2013-04-02 18:15:00
2:35 PM,46.4,17.6,32,30.06,10.0,WNW,16.1,24.2,N/A,,Clear,300,2013-04-02 18:35:00
2:55 PM,46.4,19.4,34,30.05,10.0,WNW,17.3,23.0,N/A,,Clear,290,2013-04-02 18:55:00
3:15 PM,46.4,19.4,34,30.05,10.0,WNW,16.1,25.3,N/A,,Clear,290,2013-04-02 19:15:00
3:35 PM,46.4,19.4,34,30.05,10.0,WNW,12.7,19.6,N/A,,Clear,300,2013-04-02 19:35:00
3:55 PM,46.4,19.4,34,30.04,10.0,WNW,13.8,20.7,N/A,,Clear,300,2013-04-02 19:55:00
4:15 PM,46.4,17.6,32,30.04,10.0,WNW,16.1,23.0,N/A,,Clear,300,2013-04-02 20:15:00
4:35 PM,46.4,17.6,32,30.04,10.0,WNW,15.0,20.7,N/A,,Clear,290,2013-04-02 20:35:00
4:55 PM,46.4,17.6,32,30.04,10.0,WNW,13.8,20.7,N/A,,Clear,290,2013-04-02 20:55:00
5:15 PM,46.4,17.6,32,30.05,10.0,West,16.1,23.0,N/A,,Clear,280,2013-04-02 21:15:00
5:35 PM,46.4,17.6,32,30.06,10.0,WNW,13.8,19.6,N/A,,Clear,290,2013-04-02 21:35:00
5:55 PM,44.6,17.6,34,30.06,10.0,WNW,13.8,20.7,N/A,,Clear,290,2013-04-02 21:55:00
6:15 PM,44.6,17.6,34,30.07,10.0,West,15.0,21.9,N/A,,Clear,280,2013-04-02 22:15:00
6:35 PM,44.6,17.6,34,30.08,10.0,WNW,10.4,20.7,N/A,,Clear,290,2013-04-02 22:35:00
6:55 PM,44.6,17.6,34,30.09,10.0,WNW,11.5,19.6,N/A,,Clear,290,2013-04-02 22:55:00
7:15 PM,44.6,17.6,34,30.09,10.0,WNW,10.4,16.1,N/A,,Clear,300,2013-04-02 23:15:00
7:35 PM,42.8,17.6,36,30.09,10.0,WNW,9.2,16.1,N/A,,Clear,300,2013-04-02 23:35:00
7:55 PM,42.8,17.6,36,30.10,10.0,WNW,13.8,18.4,N/A,,Clear,300,2013-04-02 23:55:00
8:15 PM,42.8,17.6,36,30.11,10.0,WNW,8.1,-,N/A,,Clear,290,2013-04-03 00:15:00
8:35 PM,42.8,17.6,36,30.12,10.0,WNW,11.5,16.1,N/A,,Clear,300,2013-04-03 00:35:00
8:55 PM,42.8,17.6,36,30.13,10.0,WNW,6.9,17.3,N/A,,Clear,300,2013-04-03 00:55:00
9:15 PM,42.8,15.8,34,30.13,10.0,WNW,11.5,19.6,N/A,,Clear,300,2013-04-03 01:15:00
9:35 PM,42.8,17.6,36,30.14,10.0,NW,10.4,20.7,N/A,,Clear,310,2013-04-03 01:35:00
9:55 PM,42.8,17.6,36,30.13,10.0,NW,10.4,20.7,N/A,,Clear,320,2013-04-03 01:55:00
10:15 PM,42.8,17.6,36,30.13,10.0,NW,11.5,18.4,N/A,,Clear,320,2013-04-03 02:15:00
10:35 PM,42.8,17.6,36,30.13,10.0,NW,10.4,17.3,N/A,,Clear,320,2013-04-03 02:35:00
10:55 PM,42.8,17.6,36,30.13,10.0,NW,5.8,19.6,N/A,,Clear,310,2013-04-03 02:55:00
11:15 PM,42.8,17.6,36,30.13,10.0,NNW,9.2,16.1,N/A,,Clear,330,2013-04-03 03:15:00
11:35 PM,41.0,17.6,39,30.14,10.0,NW,9.2,16.1,N/A,,Clear,320,2013-04-03 03:35:00
11:55 PM,41.0,17.6,39,30.14,10.0,NNW,9.2,16.1,N/A,,Clear,330,2013-04-03 03:55:00